Location: Bratislava
(48.1500°N, 17.1170°E)
Time: 01:38:16
(UTC+02:00)

Envisat - Pass Details

Date: 16 May 2026
Orbit: 761 x 763 km, 98.4° (Epoch: 7 June)

Event Time Altitude Azimuth Distance (km) Brightness Sun altitude
Rises 03:33:52 0° 14° (NNE) 3,236 7.5 -13.2°
Reaches altitude 10° 03:36:11 10° 16° (NNE) 2,305 6.6 -13.0°
Maximum altitude 03:41:16 82° 104° (ESE) 775 3.0 -12.4°
Enters shadow 03:46:00 12° 192° (SSW) 2,159 4.8 -11.9°
